Location: Devore Heights
(34.2372°N, 117.4156°W)
Time: 01:38:22
(UTC+00:00)

A-11 Canister half - Pass Details

Date: 14 September 2024
Orbit: 1515 x 1684 km, 47.2° (Epoch: 06 October)

Event Time Altitude Azimuth Distance (km) Brightness Sun altitude
Rises 07:12:54 0° 301° (WNW) 4,664 11.9 -51.8°
Reaches altitude 10° 07:16:08 10° 308° (NW) 3,677 11.3 -52.0°
Enters shadow 07:19:48 25° 321° (NW) 2,671 10.4 -52.1°
